San Diego, CA

12:56 PM PDT on July 26, 2017 (GMT -0700)
San Diego International-Lindbergh

Weather History for KSAN - January, 2013

Change the Weather History Date:

Sunday, January 13, 2013

  Actual Average Record
Temperature  
Mean Temperature 49 °F 57 °F  
Max Temperature 56 °F 65 °F 83 °F (1904)
Min Temperature 42 °F 49 °F 31 °F (1963)
Degree Days  
Heating Degree Days 16 8  
Month to date heating degree days 157 107  
Since 1 July heating degree days 477 514  
Cooling Degree Days 0 0  
Month to date cooling degree days 0 0  
Year to date cooling degree days 0 0  
Moisture  
Dew Point 26 °F    
Average Humidity 42    
Maximum Humidity 58    
Minimum Humidity 26    
Precipitation  
Precipitation 0.00 in 0.07 in 1.29 in (1952)
Month to date precipitation 0.21 0.85  
Year to date precipitation 0.21 0.85  
Since 1 July precipitation 3.38  
Snow  
Snow 0.00 in - - ()
Month to date snowfall 0.0  
Year to date snowfall 0.0  
Snow Depth 0.00 in    
Sea Level Pressure  
Sea Level Pressure 30.12 in    
Wind  
Wind Speed 3 mph (SW)    
Max Wind Speed 12 mph    
Max Gust Speed 15 mph    
Visibility 10 miles    
Events      
T = Trace of Precipitation, MM = Missing Value Source: NWS Daily Summary

Daily Weather History Graph

Daily Weather History Graph

Search for Another Location

Airport or City:

Trip Planner

Search our weather history database for the weather conditions in past years. The results will help you decide how hot, cold, wet, or windy it might be!

Date:

Astronomy

Jan. 13, 2013 Rise Set
Actual Time 6:51 AM PST 5:04 PM PST
Civil Twilight 6:24 AM PST 5:30 PM PST
Nautical Twilight 5:54 AM PST 6:01 PM PST
Astronomical Twilight 5:24 AM PST 6:30 PM PST
Moon 8:02 AM PST (1/13) 7:36 PM PST (1/13)
Length of Visible Light 11h 06m
Length of Day
10h 12m
Waxing Crescent, 6% of the Moon is Illuminated
Jan 13
Waxing Crescent
Jan 18
First Quarter
Jan 26
Full
Feb 3
Last Quarter
Feb 9
New

Hourly Weather History & Observations

Time (PST) Temp. Windchill Dew Point Humidity Pressure Visibility Wind Dir Wind Speed Gust Speed Precip Events Conditions
12:51 AM 44.1 °F - 25.0 °F 47% 30.13 in 10.0 mi Calm Calm - N/A   Partly Cloudy
1:51 AM 44.1 °F - 26.1 °F 49% 30.13 in 10.0 mi Calm Calm - N/A   Mostly Cloudy
2:51 AM 44.1 °F - 26.1 °F 49% 30.13 in 10.0 mi Calm Calm - N/A   Mostly Cloudy
3:51 AM 44.1 °F - 25.0 °F 47% 30.12 in 10.0 mi Calm Calm - N/A   Mostly Cloudy
4:51 AM 43.0 °F 41.3 °F 25.0 °F 49% 30.12 in 10.0 mi SSE 3.5 mph - N/A   Mostly Cloudy
5:51 AM 44.1 °F - 25.0 °F 47% 30.15 in 10.0 mi Calm Calm - N/A   Mostly Cloudy
6:51 AM 45.0 °F - 24.1 °F 44% 30.17 in 10.0 mi Calm Calm - N/A   Mostly Cloudy
7:51 AM 45.0 °F 42.6 °F 21.0 °F 39% 30.16 in 10.0 mi East 4.6 mph - N/A   Partly Cloudy
8:51 AM 50.0 °F - 21.0 °F 32% 30.17 in 10.0 mi NE 4.6 mph - N/A   Partly Cloudy
9:51 AM 53.1 °F - 19.9 °F 27% 30.16 in 10.0 mi ESE 6.9 mph - N/A   Clear
10:51 AM 55.0 °F - 23.0 °F 29% 30.14 in 10.0 mi SW 5.8 mph - N/A   Partly Cloudy
11:51 AM 55.9 °F - 21.9 °F 27% 30.12 in 10.0 mi SW 6.9 mph - N/A   Partly Cloudy
12:51 PM 55.0 °F - 25.0 °F 31% 30.09 in 10.0 mi SW 9.2 mph - N/A   Partly Cloudy
1:51 PM 55.0 °F - 26.1 °F 33% 30.08 in 10.0 mi SW 10.4 mph - N/A   Scattered Clouds
2:51 PM 55.0 °F - 27.0 °F 34% 30.09 in 10.0 mi WNW 9.2 mph - N/A   Mostly Cloudy
3:51 PM 54.0 °F - 28.0 °F 37% 30.09 in 10.0 mi NW 9.2 mph - N/A   Mostly Cloudy
4:51 PM 53.1 °F - 28.0 °F 38% 30.09 in 10.0 mi WNW 6.9 mph - N/A   Mostly Cloudy
5:51 PM 52.0 °F - 28.9 °F 41% 30.09 in 10.0 mi Calm Calm - N/A   Mostly Cloudy
6:51 PM 51.1 °F - 30.0 °F 44% 30.10 in 10.0 mi Calm Calm - N/A   Mostly Cloudy
7:51 PM 48.9 °F - 30.0 °F 48% 30.10 in 10.0 mi Calm Calm - N/A   Scattered Clouds
8:51 PM 48.0 °F - 30.9 °F 52% 30.11 in 10.0 mi Calm Calm - N/A   Scattered Clouds
9:51 PM 46.9 °F - 30.0 °F 52% 30.12 in 10.0 mi Calm Calm - N/A   Scattered Clouds
10:51 PM 45.0 °F - 30.0 °F 56% 30.13 in 9.0 mi Calm Calm - N/A   Scattered Clouds
11:51 PM 44.1 °F - 30.0 °F 58% 30.14 in 10.0 mi Calm Calm - N/A   Scattered Clouds